Terug naar catalogus

COSMOS 1382

ActiefMilitairHEO
NORAD 13295·PAYLOAD·🇷🇺 Russia

Gelanceerd Jun 25, 1982 vanaf Plesetsk Cosmodrome

Loading…

Volgende Passages (komende 24 uur)

TLE

VersSource: Space-Track

Epoch: Sep 14, 2026, 19:41 UTC

1 13295U 82064A   26257.82055490  .00001064  00000-0  00000-0 0  9996
2 13295  62.2192 130.9099 7342326  44.9825 355.0752  2.00557341282358

Volg COSMOS 1382 in realtime met AllMySat

Download on the App Store